Weather History for KFXE - April, 2013

Change the Weather History Date:

Sunday, April 7, 2013

  Actual Average Record
Temperature  
Mean Temperature 74 °F -  
Max Temperature 79 °F 82 °F 90 °F (1982)
Min Temperature 69 °F 62 °F 44 °F (1950)
Cooling Degree Days 9    
Growing Degree Days 24 (Base 50)    
Moisture  
Dew Point 61 °F    
Average Humidity 67    
Maximum Humidity 78    
Minimum Humidity 54    
Precipitation  
Precipitation 0.01 in - - ()
Sea Level Pressure  
Sea Level Pressure 30.10 in    
Wind  
Wind Speed 12 mph (East)    
Max Wind Speed 17 mph    
Max Gust Speed 25 mph    
Visibility 10 miles    
Events Rain    
Averages and records for this station are not official NWS values.
T = Trace of Precipitation, MM = Missing Value Source: NWS Daily Summary

Daily Weather History Graph

Daily Weather History Graph

Search for Another Location

Airport or City:

Trip Planner

Search our weather history database for the weather conditions in past years. The results will help you decide how hot, cold, wet, or windy it might be!

Date:

Astronomy

Apr. 07, 2013 Rise Set
Actual Time 7:05 AM EDT 7:40 PM EDT
Civil Twilight 6:41 AM EDT 8:03 PM EDT
Nautical Twilight 6:14 AM EDT 8:31 PM EDT
Astronomical Twilight 5:46 AM EDT 8:59 PM EDT
Moon 5:07 AM EDT (4/7) 5:22 PM EDT (4/7)
Length of Visible Light 13h 22m
Length of Day
12h 35m
Waning Crescent, 8% of the Moon is Illuminated
Apr 7
Waning Crescent
Apr 10
New
Apr 18
First Quarter
Apr 25
Full
May 2
Last Quarter

Hourly Weather History & Observations

Time (EDT) Temp. Dew Point Humidity Pressure Visibility Wind Dir Wind Speed Gust Speed Precip Events Conditions
12:53 AM 72.0 °F 62.1 °F 71% 30.09 in 10.0 mi ENE 11.5 mph - N/A   Clear
1:53 AM 72.0 °F 62.1 °F 71% 30.06 in 10.0 mi ENE 12.7 mph - N/A   Partly Cloudy
2:53 AM 72.0 °F 62.1 °F 71% 30.04 in 10.0 mi East 13.8 mph - N/A   Mostly Cloudy
3:05 AM 69.8 °F 62.6 °F 78% 30.04 in 10.0 mi East 12.7 mph - 0.01 in Rain Light Rain
3:53 AM 70.0 °F 63.0 °F 78% 30.04 in 10.0 mi East 8.1 mph - 0.01 in   Mostly Cloudy
4:53 AM 71.1 °F 62.1 °F 73% 30.03 in 10.0 mi East 11.5 mph - N/A   Overcast
5:53 AM 70.0 °F 61.0 °F 73% 30.05 in 10.0 mi East 9.2 mph - N/A   Mostly Cloudy
6:53 AM 70.0 °F 61.0 °F 73% 30.06 in 10.0 mi East 12.7 mph - N/A   Scattered Clouds
7:53 AM 72.0 °F 62.1 °F 71% 30.09 in 10.0 mi ENE 11.5 mph - N/A   Mostly Cloudy
8:53 AM 75.0 °F 62.1 °F 64% 30.11 in 10.0 mi East 10.4 mph - N/A   Mostly Cloudy
9:53 AM 73.9 °F 63.0 °F 68% 30.14 in 10.0 mi NE 10.4 mph - N/A   Mostly Cloudy
10:23 AM 73.4 °F 62.6 °F 69% 30.14 in 10.0 mi ENE 13.8 mph - N/A   Overcast
10:38 AM 73.4 °F 62.6 °F 69% 30.14 in 10.0 mi ENE 11.5 mph - N/A   Overcast
10:53 AM 73.9 °F 62.1 °F 66% 30.15 in 10.0 mi ENE 13.8 mph - N/A   Overcast
11:53 AM 71.1 °F 63.0 °F 75% 30.16 in 10.0 mi ENE 5.8 mph - 0.00 in Rain Light Rain
12:53 PM 73.9 °F 61.0 °F 64% 30.14 in 10.0 mi ENE 11.5 mph 18.4 mph 0.00 in   Overcast
1:53 PM 75.0 °F 60.1 °F 60% 30.13 in 10.0 mi ENE 13.8 mph 20.7 mph N/A   Mostly Cloudy
2:53 PM 78.1 °F 60.1 °F 54% 30.11 in 10.0 mi East 17.3 mph 25.3 mph 0.00 in   Scattered Clouds
3:53 PM 79.0 °F 61.0 °F 54% 30.10 in 10.0 mi East 16.1 mph 21.9 mph N/A   Mostly Cloudy
4:53 PM 77.0 °F 59.0 °F 54% 30.10 in 10.0 mi ESE 15.0 mph - N/A   Mostly Cloudy
5:53 PM 75.0 °F 59.0 °F 57% 30.09 in 10.0 mi East 13.8 mph - N/A   Mostly Cloudy
6:53 PM 75.0 °F 59.0 °F 57% 30.09 in 10.0 mi East 13.8 mph - N/A   Scattered Clouds
7:53 PM 73.0 °F 60.1 °F 64% 30.09 in 10.0 mi East 10.4 mph - N/A   Clear
8:53 PM 72.0 °F 60.1 °F 66% 30.10 in 10.0 mi East 8.1 mph - N/A   Partly Cloudy
9:53 PM 72.0 °F 60.1 °F 66% 30.12 in 10.0 mi East 10.4 mph - N/A   Partly Cloudy
10:53 PM 72.0 °F 60.1 °F 66% 30.12 in 10.0 mi East 9.2 mph - N/A   Scattered Clouds
11:53 PM 72.0 °F 60.1 °F 66% 30.12 in 10.0 mi East 6.9 mph - N/A   Scattered Clouds